Weather reports worldwide

Advertisment
Asturias/Aviles, Spain (8011): temperature & dewpoint: 06.12.2018 00:00:00 - 12.12.2018 00:00:00 (CET)Asturias/Aviles, Spain (8011): wind speed: 06.12.2018 00:00:00 - 12.12.2018 00:00:00 (CET)Asturias/Aviles, Spain (8011): wind direction: 06.12.2018 00:00:00 - 12.12.2018 00:00:00 (CET)Asturias/Aviles, Spain (8011): reduced air pressure: 06.12.2018 00:00:00 - 12.12.2018 00:00:00 (CET)Asturias/Aviles, Spain (8011): visibility: 06.12.2018 00:00:00 - 12.12.2018 00:00:00 (CET)
Date & Time tt [°C] td [°C] ff [km/h] ff [kn] dd ppp [hPa] vv [km]
12.12.2018 00:00:00 11,7 7,6 16 9 W 1023,5 -
11.12.2018 23:00:00 11,6 8,3 22 12 W 1023,8 -
11.12.2018 22:00:00 11,1 9,9 22 12 WNW 1023,9 7
11.12.2018 21:00:00 12,2 10,8 26 14 WNW 1023,5 -
11.12.2018 20:00:00 10,8 7,4 16 9 SSW 1022,4 -
11.12.2018 19:00:00 10,7 8,1 0 0 N 1022,7 10
11.12.2018 18:00:00 12,2 8,0 4 2 W 1021,9 -
11.12.2018 17:00:00 13,0 7,4 4 2 W 1021,1 -
11.12.2018 16:00:00 13,6 5,4 8 4 WNW 1020,7 10
11.12.2018 15:00:00 13,9 7,7 4 2 NW 1020,5 -
11.12.2018 14:00:00 14,0 5,0 5 3 SW 1020,8 -
11.12.2018 13:00:00 12,3 4,6 8 4 SW 1021,3 10
11.12.2018 12:00:00 11,4 3,2 15 8 SW 1021,1 -
11.12.2018 11:00:00 11,1 2,8 15 8 SW 1021,1 -
11.12.2018 10:00:00 8,4 2,2 16 9 SW 1021,1 12
11.12.2018 09:00:00 7,2 2,1 13 7 SW 1021,2 -
11.12.2018 08:00:00 7,1 2,3 15 8 SW 1020,8 -
11.12.2018 07:00:00 7,0 2,3 15 8 SW 1020,8 10
11.12.2018 06:00:00 7,5 2,8 15 8 SSW 1021,3 -
11.12.2018 05:00:00 7,1 3,2 16 9 SSW 1021,8 -
11.12.2018 04:00:00 6,5 4,0 15 8 SSW 1022,7 -
11.12.2018 03:00:00 6,3 4,3 11 6 SSW 1023,6 -
11.12.2018 02:00:00 6,2 4,7 9 5 SSW 1024,3 -
11.12.2018 01:00:00 5,8 4,7 9 5 S 1025,2 -
11.12.2018 00:00:00 5,3 4,3 9 5 SSE 1025,8 -
10.12.2018 23:00:00 6,6 5,6 13 7 SSE 1026,1 -
10.12.2018 22:00:00 6,4 5,7 9 5 S 1026,6 10
10.12.2018 21:00:00 7,2 6,0 11 6 SSE 1027,4 -
10.12.2018 20:00:00 7,1 6,0 11 6 SE 1028,1 -
10.12.2018 19:00:00 8,2 6,3 11 6 SSE 1028,4 9
10.12.2018 18:00:00 9,2 7,3 13 7 SE 1028,8 -
10.12.2018 17:00:00 11,5 8,4 13 7 ESE 1028,8 -
10.12.2018 16:00:00 12,8 8,7 13 7 E 1028,9 10
10.12.2018 15:00:00 13,6 8,3 13 7 ESE 1029,4 -
10.12.2018 14:00:00 13,3 8,1 15 8 ESE 1030,2 -
10.12.2018 13:00:00 12,5 7,4 15 8 ESE 1031,1 12
10.12.2018 12:00:00 11,1 7,6 5 3 S 1032,1 -
10.12.2018 11:00:00 7,9 5,4 13 7 SSW 1032,8 -
10.12.2018 10:00:00 7,5 5,1 13 7 SSW 1033,0 12
10.12.2018 09:00:00 6,5 4,8 16 9 SSW 1033,1 -
10.12.2018 08:00:00 7,2 5,7 16 9 SSW 1033,5 -
10.12.2018 07:00:00 7,2 5,7 16 9 SSW 1033,7 10
10.12.2018 06:00:00 7,5 6,3 15 8 SSW 1033,7 -
10.12.2018 05:00:00 7,4 6,0 11 6 SW 1033,9 -
10.12.2018 04:00:00 8,0 7,2 11 6 SSW 1034,1 -
10.12.2018 03:00:00 7,6 6,8 5 3 SSW 1034,5 -
10.12.2018 02:00:00 8,1 7,2 5 3 SSW 1034,6 -
10.12.2018 01:00:00 8,5 7,3 0 0 N 1035,0 -
10.12.2018 00:00:00 9,9 8,3 4 2 S 1035,1 -
09.12.2018 23:00:00 10,6 8,7 4 2 SSW 1035,3 -
09.12.2018 22:00:00 11,5 9,2 4 2 SW 1035,3 6
09.12.2018 21:00:00 11,8 9,5 0 0 N 1035,4 -
09.12.2018 20:00:00 12,1 9,7 5 3 W 1034,9 -
09.12.2018 19:00:00 12,3 10,0 8 4 WNW 1034,5 5
09.12.2018 18:00:00 12,4 9,2 11 6 W 1034,0 -
09.12.2018 17:00:00 12,8 9,4 13 7 WNW 1033,7 -
09.12.2018 16:00:00 13,0 9,6 16 9 WNW 1033,1 12
09.12.2018 15:00:00 13,1 9,5 18 10 WNW 1032,8 -
09.12.2018 14:00:00 14,0 10,5 13 7 NW 1033,1 -
09.12.2018 13:00:00 14,0 10,6 13 7 WNW 1033,3 15
09.12.2018 12:00:00 13,9 10,5 21 11 WNW 1033,6 -
09.12.2018 11:00:00 13,7 10,9 18 10 WNW 1033,5 -
09.12.2018 10:00:00 12,9 11,0 15 8 WNW 1032,3 15
09.12.2018 09:00:00 12,5 11,1 18 10 W 1031,9 -
09.12.2018 08:00:00 12,0 10,0 13 7 NW 1031,9 -
09.12.2018 07:00:00 12,7 8,1 11 6 WNW 1030,8 20
09.12.2018 06:00:00 13,5 8,5 22 12 W 1030,5 -
09.12.2018 05:00:00 12,9 8,4 18 10 W 1030,5 -
09.12.2018 04:00:00 13,1 8,8 18 10 W 1030,1 -
09.12.2018 03:00:00 13,6 8,8 18 10 WNW 1029,4 -
09.12.2018 02:00:00 13,4 10,6 15 8 W 1029,4 -
09.12.2018 01:00:00 15,8 9,3 18 10 W 1029,3 -
09.12.2018 00:00:00 15,8 9,7 13 7 WSW 1029,0 -
08.12.2018 23:00:00 16,6 10,4 24 13 W 1028,8 -
08.12.2018 22:00:00 17,2 10,1 21 11 WNW 1028,5 20
08.12.2018 21:00:00 16,3 8,0 13 7 WSW 1028,2 -
08.12.2018 20:00:00 15,3 7,1 13 7 WSW 1027,9 -
08.12.2018 19:00:00 13,2 8,2 11 6 SSW 1028,0 25
08.12.2018 18:00:00 12,5 8,7 4 2 SSE 1028,2 -
08.12.2018 17:00:00 14,1 8,7 0 0 N 1028,0 -
08.12.2018 16:00:00 15,3 7,5 8 4 W 1027,8 30
08.12.2018 15:00:00 14,1 8,3 5 3 NNW 1028,1 -
08.12.2018 14:00:00 14,3 6,6 5 3 NW 1028,6 -
08.12.2018 13:00:00 14,5 4,8 9 5 WNW 1029,2 40
08.12.2018 12:00:00 13,4 4,1 15 8 SW 1029,4 -
08.12.2018 11:00:00 10,6 3,8 18 10 SSW 1030,3 -
08.12.2018 10:00:00 9,2 3,4 13 7 SSW 1030,8 30
08.12.2018 09:00:00 8,3 3,3 13 7 SW 1031,2 -
08.12.2018 08:00:00 8,2 3,3 9 5 SW 1030,9 -
08.12.2018 07:00:00 9,8 4,2 15 8 WSW 1030,6 20
08.12.2018 06:00:00 8,7 3,5 13 7 SW 1030,2 -
08.12.2018 05:00:00 8,7 3,8 15 8 SW 1030,0 -
08.12.2018 04:00:00 8,8 3,8 15 8 WSW 1031,0 -
08.12.2018 03:00:00 8,6 4,0 13 7 SW 1030,3 -
08.12.2018 02:00:00 8,8 4,5 11 6 SW 1029,9 -
08.12.2018 01:00:00 10,6 4,9 18 10 W 1030,4 -
08.12.2018 00:00:00 10,6 4,7 16 9 W 1030,4 -
07.12.2018 23:00:00 11,1 5,8 18 10 W 1030,5 -
07.12.2018 22:00:00 11,7 6,0 16 9 W 1030,6 15
07.12.2018 21:00:00 11,3 5,6 16 9 W 1030,0 -
07.12.2018 20:00:00 11,1 7,3 21 11 W 1029,9 -
07.12.2018 19:00:00 11,5 8,9 21 11 W 1029,5 15
07.12.2018 18:00:00 11,4 8,4 29 16 WNW 1028,9 -
07.12.2018 17:00:00 11,5 10,4 34 18 WNW 1028,1 -
07.12.2018 16:00:00 11,6 6,6 31 17 W 1027,3 8
07.12.2018 15:00:00 11,7 10,6 42 23 WNW 1026,7 -
07.12.2018 14:00:00 17,2 10,0 28 15 W 1024,3 -
07.12.2018 13:00:00 17,6 10,2 29 16 W 1024,2 -
07.12.2018 12:00:00 17,3 9,7 24 13 WSW 1024,1 -
07.12.2018 11:00:00 15,6 7,9 26 14 SW 1024,1 -
07.12.2018 10:00:00 12,9 6,6 26 14 SW 1024,4 30
07.12.2018 09:00:00 9,8 5,5 15 8 SSW 1025,1 -
07.12.2018 08:00:00 5,9 4,1 8 4 SSW 1025,8 -
07.12.2018 07:00:00 5,8 3,8 4 2 SSW 1026,3 20
07.12.2018 06:00:00 6,2 4,0 9 5 SW 1025,6 -
07.12.2018 05:00:00 7,0 4,5 13 7 SSW 1025,7 -
07.12.2018 04:00:00 7,2 4,7 13 7 SW 1026,5 -
07.12.2018 03:00:00 7,2 5,0 13 7 SSW 1026,5 -
07.12.2018 02:00:00 7,6 5,7 11 6 SW 1027,0 -
07.12.2018 01:00:00 8,3 6,1 11 6 SW 1027,7 -
07.12.2018 00:00:00 9,2 7,0 15 8 SSW 1028,2 -
06.12.2018 23:00:00 9,5 7,4 13 7 SW 1028,8 -
06.12.2018 22:00:00 10,4 7,8 16 9 SSW 1029,0 20
06.12.2018 21:00:00 10,8 8,2 13 7 SSW 1029,4 -
06.12.2018 20:00:00 11,0 8,5 13 7 SSW 1029,6 -
06.12.2018 19:00:00 10,7 8,1 0 0 N 1029,6 30
06.12.2018 18:00:00 12,4 8,7 8 4 WNW 1029,5 -
06.12.2018 17:00:00 13,9 9,3 11 6 WNW 1029,2 -
06.12.2018 16:00:00 14,8 8,1 16 9 W 1029,1 30
06.12.2018 15:00:00 14,9 8,1 24 13 WNW 1029,3 -
06.12.2018 14:00:00 14,2 8,8 22 12 WNW 1029,7 -
06.12.2018 13:00:00 14,9 8,4 22 12 W 1030,1 30
06.12.2018 12:00:00 - - 18 10 WNW - -
06.12.2018 11:00:00 13,7 9,8 13 7 WNW 1030,4 -
06.12.2018 10:00:00 13,4 9,4 21 11 W 1029,7 20
06.12.2018 09:00:00 12,5 9,3 24 13 W 1029,2 -
06.12.2018 08:00:00 12,4 9,4 22 12 WNW 1028,6 -
06.12.2018 07:00:00 12,2 9,8 18 10 W 1028,2 20
06.12.2018 06:00:00 12,4 9,6 15 8 W 1028,1 -
06.12.2018 05:00:00 12,8 10,0 21 11 WNW 1028,1 -
06.12.2018 04:00:00 12,7 10,1 18 10 WNW 1028,0 -
06.12.2018 03:00:00 12,9 10,4 13 7 WNW 1027,3 -
06.12.2018 02:00:00 13,2 10,7 18 10 WNW 1026,8 -
06.12.2018 01:00:00 13,6 11,1 16 9 WNW 1026,6 -
06.12.2018 00:00:00 14,3 11,4 24 13 WNW 1026,4 -

tt = temperature
td = dewpoint
ff = wind speed
dd = wind direction
ppp = reduced air pressure
vv = visibility

Next stations